This demonstration page uses our WeatherBlox Daily Observations layout. Learn more.

Left ArrowRight Arrow

38.20091, -84.87328

Hourly Observations for June 28, 2022

Temp ( °F °C ) Dew Point ( °F °C ) Humidity (%) Winds ( mph kmh ) Pressure ( in mb ) Visibility ( mi km ) Precip ( " mm )
12:53 am 00:53 Clear 60 15.6 55 12.8 84 84 Calm 30.19 1023 10 16 0.00 0.00
1:53 am 01:53 Clear 60 15.6 53 11.7 78 78 N 3 6 30.20 1023 10 16 0.00 0.00
2:53 am 02:53 Clear 64 17.8 49 9.4 58 58 N 5 7 30.19 1022 10 16 0.00 0.00
3:53 am 03:53 Clear 63 17.2 47 8.3 56 56 N 7 11 30.20 1023 10 16 0.00 0.00
4:53 am 04:53 Clear 62 16.7 46 7.8 56 56 NNE 3 6 30.21 1023 10 16 0.00 0.00
5:53 am 05:53 Clear 61 16.1 45 7.2 56 56 NNE 5 7 30.21 1023 10 16 0.00 0.00
6:53 am 06:53 Sunny 57 13.9 48 8.9 72 72 Calm 30.22 1024 10 16 0.00 0.00
7:53 am 07:53 Sunny 61 16.1 50 10 67 67 NNW 3 6 30.24 1024 10 16 0.00 0.00
8:53 am 08:53 Sunny 66 18.9 47 8.3 50 50 N 5 7 30.24 1024 10 16 0.00 0.00
9:53 am 09:53 Sunny 71 21.7 50 10 47 47 ENE 3 6 30.24 1024 10 16 0.00 0.00
10:53 am 10:53 Sunny 73 22.8 49 9.4 43 43 undefined N/A 30.25 1024 10 16 0.00 0.00
11:53 am 11:53 Sunny 76 24.4 48 8.9 37 37 VRB 5 7 30.24 1024 10 16 0.00 0.00
12:53 pm 12:53 Sunny 77 25 48 8.9 36 36 NNW 5 7 30.24 1024 10 16 0.00 0.00
1:53 pm 13:53 Sunny 79 26.1 50 10 36 36 VRB 6 9 30.23 1024 10 16 0.00 0.00
2:53 pm 14:53 Sunny 76 24.4 49 9.4 39 39 NNW 9 15 30.22 1023 10 16 0.00 0.00
3:53 pm 15:53 Sunny 74 23.3 49 9.4 41 41 NNW 6 9 30.21 1023 10 16 0.00 0.00
4:53 pm 16:53 Sunny 75 23.9 49 9.4 40 40 N 6 9 30.20 1023 10 16 0.00 0.00
5:53 pm 17:53 Sunny 76 24.4 44 6.7 32 32 N 5 7 30.19 1022 10 16 0.00 0.00
6:53 pm 18:53 Sunny 77 25 52 11.1 42 42 N 7 11 30.17 1022 10 16 0.00 0.00
7:53 pm 19:53 Sunny 77 25 51 10.6 40 40 NE 6 9 30.17 1022 10 16 0.00 0.00
8:53 pm 20:53 Sunny 75 23.9 51 10.6 43 43 Calm 30.17 1022 10 16 0.00 0.00
9:53 pm 21:53 Clear 64 17.8 54 12.2 70 70 Calm 30.18 1022 10 16 0.00 0.00
10:53 pm 22:53 Clear 61 16.1 54 12.2 78 78 Calm 30.19 1022 10 16 0.00 0.00
11:53 pm 23:53 Clear 58 14.4 53 11.7 84 84 Calm 30.19 1022 10 16 0.00 0.00

Powered by AerisWeather